Miscellaneous Local Product
Issued by NWS Hastings, NE

Home | Current Version | Previous Version | Text Only | Print | Product List | Glossary Off
Versions: 1 2 3 4 5 6 7 8 9 10 11 12 13 14 15 16 17 18 19 20 21 22 23 24 25 26 27 28 29 30 31 32 33 34 35 36 37 38 39 40 41 42 43 44 45 46 47 48 49 50

952
AXUS43 KGID 061202
MISGRI

GID CWA HOURLY WEATHER ROUNDUP
NATIONAL WEATHER SERVICE HASTINGS NE
600 AM CST TUE DEC 06 2016

NOTE: "FAIR" INDICATES FEW OR NO CLOUDS BELOW 12,000 FEET WITH NO
SIGNIFICANT WEATHER AND/OR OBSTRUCTIONS TO VISIBILITY.

...SOUTH CENTRAL NEBRASKA...

CITY           SKY/WX    TMP DP  RH WIND       PRES   REMARKS
GRAND ISLAND   CLEAR     19  13  77 NW9       30.00S WCI   8
HASTINGS       PTCLDY    20  13  74 NW13      30.00S WCI   7
KEARNEY        CLEAR     19  10  68 NW6       30.01R WCI  11
ORD            CLEAR     20  10  65 W10       29.96R WCI   9
YORK           CLEAR     21  14  73 NW13      29.99S WCI   9
AURORA         PTCLDY    19  12  76 NW9       29.98F WCI   7
LEXINGTON      CLEAR     19  12  73 W12       30.01R WCI   7
HOLDREGE       CLEAR     21  12  68 NW13      30.00R WCI   9
HEBRON         CLEAR     24  16  71 NW8       30.01R WCI  15

...NEBRASKA PANHANDLE...

CITY           SKY/WX    TMP DP  RH WIND       PRES   REMARKS
CHADRON        CLEAR      9   2  73 W12       29.99F WCI  -6
ALLIANCE       CLEAR      0  -4  83 SW10      29.95S WCI -16
SCOTTSBLUFF    CLEAR      6   0  76 CALM      29.98S
SIDNEY         CLEAR      8   1  73 NW12      29.96S WCI  -7

...WESTERN AND NORTH CENTRAL NEBRASKA...

CITY           SKY/WX    TMP DP  RH WIND       PRES   REMARKS
VALENTINE      CLEAR     12   4  70 W10       29.95F WCI  -1
AINSWORTH      CLEAR     15   8  71 W10       29.94S WCI   3
ONEILL         CLEAR     19   7  59 W26G37    29.93S WCI   1
BROKEN BOW     CLEAR     18  12  77 W9        29.96S WCI   7
IMPERIAL       CLEAR     14   4  64 NW12      30.01S WCI   0
NORTH PLATTE   CLEAR     16   8  71 W9        29.99S WCI   4
MCCOOK         CLEAR     17   8  67 W10       30.04R WCI   5

...EASTERN NEBRASKA...

CITY           SKY/WX    TMP DP  RH WIND       PRES   REMARKS
NORFOLK        CLEAR     18   9  68 W12       29.94R WCI   5
SO SIOUX CITY  CLEAR     20  10  65 NW12      29.94R WCI   8
TEKAMAH        CLEAR     22  13  68 NW10      29.98R WCI  11
COLUMBUS       CLEAR     19   9  63 W14       29.98S WCI   6
ALBION         CLEAR     21   9  59 NW14      29.96S WCI   8
OMAHA EPPLEY   CLEAR     24  12  60 NW17      29.98R WCI  11
OFFUTT AFB     CLEAR     25  11  54 NW20G30   29.97R WCI  11
MILLARD        CLEAR     25  13  59 NW13      29.98R WCI  14
LINCOLN        PTCLDY    25  12  58 NW14      30.01R WCI  13
NEBRASKA CITY  CLEAR     28  14  55 NW16G22   29.96R WCI  16
BEATRICE       CLEAR     25  15  64 NW15G22   29.99S WCI  13
FALLS CITY     CLOUDY    30  20  66 NW15      29.97R WCI  19

...NORTHERN KANSAS...

CITY           SKY/WX    TMP DP  RH WIND       PRES   REMARKS
GOODLAND       CLOUDY    11   5  77 NW13      30.02R WCI  -4
HILL CITY      MOCLDY    22  12  65 NW12      30.04R WCI  10
NORTON         SUNNY     18   9  68 W14       30.01S WCI   4
PHILLIPSBURG   CLEAR     25  16  68 NW10      30.03S WCI  15
SMITH CENTER   CLEAR     16  12  86 NW5       30.03S WCI   9
BELOIT         CLEAR     23  16  74 NW5       30.03R WCI  17
HAYS           CLEAR     24  15  68 NW15      30.04R WCI  11
RUSSELL        CLEAR     20  16  84 NW8       30.02S WCI  10
CONCORDIA      CLEAR     25  17  72 NW9       30.02R WCI  15
SALINA         CLEAR     30  19  63 N13       30.02R WCI  20
TOPEKA         PTCLDY    32  23  69 NW14      29.97R WCI  22



USA.gov is the U.S. government's official web portal to all federal, state and local government web resources and services.